[[{"header":{"parameterUnit":"m.s-1","parameterCategory":1,"la1":30.2992,"la2":30.254,"lo1":-89.0895,"lo2":-89.0443,"dy":0.0025,"dx":0.0025,"nx":19,"ny":19,"refTime":"2026-04-12T09:00:00:Z","depth":0,"parameterNumber":2,"parameterNumberName":"U-component_of_WINDS"},"data":[0,0,0,-2.6209,-2.6211,-2.6316,-2.6316,-2.6445,-2.6446,0,0,0,0,0,0,0,0,0,0,0,-2.6176,-2.6176,-2.6209,-2.6211,-2.6316,-2.6316,-2.6445,-2.6446,0,0,0,0,0,0,0,0,0,0,0,-2.6175,-2.6176,-2.6177,-2.6212,-2.6316,-2.6316,-2.6445,-2.6367,0,0,0,0,0,0,0,0,0,0,-2.6267,-2.6234,-2.6176,-2.6177,-2.6212,-2.6315,-2.6316,-2.6364,-2.6372,-2.6396,0,-2.6417,0,-2.6434,-2.6455,-2.6455,0,0,0,-2.6213,-2.6227,-2.6257,-2.6177,-2.6213,-2.6315,-2.6269,-2.6369,-2.6378,-2.6407,-2.6419,-2.6424,-2.6436,-2.6455,-2.6456,-2.6588,-2.6588,0,0,-2.6207,-2.6193,-2.625,-2.6263,-2.6247,-2.6266,-2.6272,-2.6374,-2.6386,-2.6419,-2.6427,-2.6438,-2.6456,-2.6457,-2.6588,-2.6588,0,0,0,-2.6189,-2.6189,-2.6217,-2.6258,-2.6277,-2.6269,-2.6276,-2.6381,-2.6392,-2.6428,-2.6439,-2.6457,-2.6459,-2.6587,-2.6588,-2.6599,0,0,0,-2.6186,-2.6179,-2.6214,-2.6207,-2.6275,-2.6331,-2.6281,-2.6385,-2.6397,-2.6439,-2.6457,-2.646,-2.6586,-2.6587,-2.6598,-2.6607,0,0,0,-2.617,-2.6177,-2.6191,-2.6206,-2.625,-2.6329,-2.6345,-2.6387,-2.6403,-2.6455,-2.646,-2.6586,-2.6587,-2.6596,-2.6604,-2.6636,0,0,0,-2.6148,-2.6201,-2.6191,-2.6254,-2.6249,-2.6336,-2.6345,-2.6411,-2.6457,-2.6458,-2.6586,-2.6588,-2.6596,-2.6603,-2.6634,-2.6658,-2.6668,0,0,-2.6206,-2.6207,-2.6246,-2.624,-2.6325,-2.6321,-2.6408,-2.6464,-2.6482,-2.6551,-2.6555,-2.6598,-2.6604,-2.6635,-2.6728,-2.6735,0,0,0,-2.6259,-2.6286,-2.6312,-2.6355,-2.6399,-2.6437,-2.6481,-2.6502,-2.6561,-2.6515,-2.662,-2.6624,-2.6643,-2.6655,-2.6661,-2.6677,-2.6593,-2.6593,-2.6593,-2.6321,-2.6341,-2.6405,-2.6438,-2.648,-2.6525,-2.656,-2.6595,-2.6604,-2.6629,-2.6649,-2.6702,-2.6716,-2.6721,-2.6737,-2.6665,-2.6665,-2.6665,-2.6665,-2.6407,-2.6447,-2.6458,-2.6524,-2.6545,-2.6601,-2.6646,-2.665,-2.6705,-2.6689,-2.6707,-2.6686,-2.6728,-2.6744,-2.6666,-2.6666,-2.6666,-2.6666,-2.6666,-2.6447,-2.647,-2.6495,-2.6559,-2.6606,-2.6638,-2.6689,-2.6707,-2.6725,-2.6742,-2.6765,-2.6764,-2.6765,-2.6752,-2.6752,-2.6753,-2.6753,-2.6753,-2.6753,-2.6479,-2.6506,-2.6548,-2.6599,-2.6628,-2.667,-2.6715,-2.6745,-2.6782,-2.6791,-2.6792,-2.6797,-2.6729,-2.671,-2.6756,-2.6755,-2.6755,-2.6755,-2.6755,-2.6555,-2.6541,-2.6604,-2.6634,-2.6695,-2.674,-2.6763,-2.6821,-2.6849,-2.6873,-2.6876,-2.6823,-2.6825,-2.682,-2.6805,-2.6872,-2.6872,-2.6872,-2.6872,-2.6588,-2.6591,-2.666,-2.6706,-2.6753,-2.678,-2.685,-2.6887,-2.6922,-2.694,-2.6933,-2.6915,-2.691,-2.6915,-2.6908,-2.6893,-2.6982,-2.6982,-2.6982,-2.6635,-2.6644,-2.67,-2.6734,-2.6783,-2.6825,-2.6891,-2.6943,-2.6981,-2.6987,-2.6954,-2.6949,-2.692,-2.691,-2.6913,-2.6902,-2.6877,0,0]},{"header":{"parameterUnit":"m.s-1","parameterCategory":1,"la1":30.2992,"la2":30.254,"lo1":-89.0895,"lo2":-89.0443,"dy":0.0025,"dx":0.0025,"nx":19,"ny":19,"refTime":"2026-04-12T09:00:00:Z","depth":0,"parameterNumber":3,"parameterNumberName":"V-component_of_WINDS"},"data":[0,0,0,4.1845,4.1847,4.1968,4.1968,4.2121,4.2123,0,0,0,0,0,0,0,0,0,0,0,4.1811,4.1812,4.1844,4.1848,4.1968,4.1968,4.2121,4.2123,0,0,0,0,0,0,0,0,0,0,0,4.1811,4.1812,4.1814,4.1848,4.1968,4.1968,4.2121,4.2029,0,0,0,0,0,0,0,0,0,0,4.1912,4.1885,4.1812,4.1814,4.1849,4.1968,4.1968,4.2025,4.2035,4.2067,0,4.2099,0,4.2114,4.2133,4.2134,0,0,0,4.1845,4.1876,4.1907,4.1814,4.185,4.1968,4.1913,4.203,4.2042,4.208,4.2101,4.2107,4.2116,4.2134,4.2135,4.2336,4.2337,0,0,4.1838,4.1834,4.1899,4.1915,4.19,4.1909,4.1917,4.2037,4.2058,4.2102,4.211,4.2119,4.2135,4.2136,4.2335,4.2336,0,0,0,4.1821,4.1829,4.1857,4.1908,4.193,4.1912,4.1921,4.2053,4.2063,4.2112,4.212,4.2136,4.2138,4.2334,4.2335,4.2384,0,0,0,4.1817,4.1819,4.1854,4.1852,4.1928,4.1994,4.1934,4.2054,4.2068,4.212,4.2136,4.2139,4.2332,4.2334,4.238,4.2407,0,0,0,4.1802,4.1817,4.1836,4.1852,4.1904,4.1992,4.2009,4.2057,4.2073,4.2134,4.214,4.2332,4.2334,4.2377,4.2401,4.2457,0,0,0,4.1785,4.1877,4.1837,4.1942,4.1903,4.2023,4.2008,4.2097,4.2154,4.2137,4.2333,4.2335,4.2376,4.2398,4.2454,4.2503,4.2524,0,0,4.1898,4.189,4.1952,4.192,4.2046,4.2005,4.2137,4.2193,4.2201,4.2289,4.2294,4.2381,4.2401,4.2457,4.2645,4.2661,0,0,0,4.1986,4.203,4.2065,4.2121,4.2168,4.2209,4.2245,4.2266,4.2342,4.2247,4.2418,4.2429,4.2462,4.2486,4.25,4.2528,4.2346,4.2346,4.2346,4.2137,4.2146,4.2248,4.2271,4.2325,4.2362,4.2406,4.2439,4.243,4.247,4.2496,4.2609,4.2637,4.2648,4.2676,4.2524,4.2524,4.2524,4.2524,4.2301,4.2365,4.2352,4.2447,4.2454,4.2533,4.2571,4.2562,4.2634,4.2591,4.262,4.257,4.2666,4.2691,4.2528,4.2528,4.2527,4.2527,4.2526,4.24,4.2432,4.2457,4.2539,4.26,4.2619,4.2689,4.2693,4.2696,4.2725,4.2752,4.2751,4.2749,4.2738,4.2739,4.2739,4.2739,4.274,4.274,4.2491,4.2519,4.2579,4.2637,4.2673,4.2721,4.2759,4.2793,4.2832,4.2828,4.2829,4.2814,4.2675,4.2638,4.2746,4.2745,4.2744,4.2744,4.2743,4.2652,4.2617,4.271,4.2747,4.2814,4.2873,4.2878,4.2948,4.2977,4.3011,4.2991,4.2888,4.2879,4.2868,4.2837,4.299,4.299,4.299,4.299,4.2734,4.2731,4.2827,4.2885,4.2942,4.2955,4.3057,4.3087,4.3112,4.3129,4.3108,4.3069,4.3058,4.3056,4.304,4.3012,4.3206,4.3206,4.3206,4.2832,4.2835,4.2923,4.2949,4.3002,4.3046,4.3141,4.3205,4.3226,4.3215,4.3143,4.3134,4.3071,4.3051,4.3036,4.3012,4.2961,0,0]}]]